Pagrindinis puslapis
METAR-TAF:

METAR-TAF

Oro uostai :

Vidsel, Švedija

platuma: 65-52N, ilguma: 020-08E, Aukštis: 180 m

Dabartinis oras

Ataskaita buvo paskelbta 21 minutes, ne 10:50 UTC
Vėjas 6 kt iš Rytų
Temperatūra -4°C
Drėgmė 100%
Slėgis 1000 hPa
Matomumas 10 km arba daugiau
(silpnas) sniego grūdai

METAR: ESPE 271050Z AUTO 09006KT 9999 -SG OVC005/// M04/M04 Q1000

Laikas: 13:11 (11:11 UTC)


TAF: trūkstamas

Orai ataskaitas ir orų prognozės (METAR, TAF).

turimą stotys yra geltonos ir raudonos taškus žemėlapyje.

Perkelti pele per norėdami pamatyti stoties vardą.

Tada spustelėkite, norėdami matyti oro stebėjimo ir prognozės.

Norėdami pakeisti žemėlapį: spustelėkite ant žalios mygtukų su juodo kryžiaus žemyn,; žalią mygtuką su brūkšneliu, jei norite nutolinti; arba žalių rodyklių gretimoms žemėlapius.


METAR-TAF: